Location: Newark
(25.0000°N, 73.5000°E)
Time: 15:11:24
(UTC+00:00)

RS-15 - Pass Details

Date: 01 March 2020
Orbit: 1898 x 2146 km, 64.8° (Epoch: 31 March)

Event Time Altitude Azimuth Distance (km) Brightness Sun altitude
Rises 22:05:36 0° 342° (NNW) 5,332 10.3 -46.2°
Reaches altitude 10° 22:09:14 10° 351° (N) 4,358 9.9 -45.5°
Maximum altitude 22:19:32 40° 57° (ENE) 2,729 9.0 -43.2°
Drops below altitude 10° 22:30:10 10° 123° (ESE) 4,531 10.3 -40.9°
Sets 22:33:58 0° 131° (SE) 5,563 10.8 -40.0°
